Regional Weather Roundup
Issued by NWS

Home | Current Version | Previous Version | Graphics & Text | Print | Product List | Glossary On
Versions: 1 2 3 4 5 6 7 8 9 10 11 12 13 14 15 16 17 18 19 20 21 22 23 24 25 26 27 28 29 30 31 32 33 34 35 36 37 38 39 40 41 42 43 44 45 46 47 48 49 50
000
ASUS43 KLMK 300110
RWRKY
KENTUCKY REGIONAL WEATHER ROUNDUP
NATIONAL WEATHER SERVICE LOUISVILLE KY
900 PM EDT WED JUL 29 2015

NOTE "FAIR" INDICATES FEW OR NO CLOUDS BELOW 12,000 FEET
WITH NO SIGNIFICANT WEATHER AND/OR OBSTRUCTIONS TO VISIBILITY.

KYZ001>023-026-027-061>063-070>075-300200-
WESTERN AND SOUTH CENTRAL KENTUCKY

CITY           SKY/WX    TMP DP  RH WIND       PRES   REMARKS
PADUCAH        CLOUDY    84  77  79 N5        30.00R HX  94
HENDERSON      CLOUDY    82  75  78 NW3       29.98R
OWENSBORO      CLOUDY    83  77  82 VRB5      29.99R HX  92
HOPKINSVILLE   MOCLDY    75  70  83 N10       29.98F
BOWLING GREEN  TSTM      79  71  76 NW6G28    30.00R
GLASGOW        PTCLDY   N/A N/A N/A CALM      29.99R
$$

KYZ024-025-028>034-038-045-046-053-300200-
NORTH CENTRAL KENTUCKY

CITY           SKY/WX    TMP DP  RH WIND       PRES   REMARKS
LOUISVILLE/SDF CLOUDY    80  73  79 S8        29.98R
LOUISVILLE/LOU CLOUDY    78  71  79 S5        29.99R
FORT KNOX      CLOUDY    76  74  94 SW5       29.99R
$$

KYZ035>037-039>044-047>052-055>060-089>105-300200-
NORTHEAST KENTUCKY

CITY           SKY/WX    TMP DP  RH WIND       PRES   REMARKS
LEXINGTON      TSTM      73  70  90 SE3       29.99F
COVINGTON      CLOUDY    76  74  93 CALM      29.97F THUNDER FOG
FRANKFORT      LGT RAIN  73  70  90 W3        29.97S
$$

KYZ054-064>069-076>088-106>120-300200-
SOUTHEAST KENTUCKY

CITY           SKY/WX    TMP DP  RH WIND       PRES   REMARKS
JACKSON        CLOUDY    80  73  79 W5        30.01R
LONDON         PTCLDY    84  71  65 CALM      30.01S
SOMERSET       CLOUDY    79  73  83 CALM      30.02R
MIDDLESBORO    CLEAR     80  74  79 CALM      30.00F
MONTICELLO     PTCLDY    81  79  94 CALM      30.03R FOG     HX  90
$$




USA.gov is the U.S. government's official web portal to all federal, state and local government web resources and services.